Orbital Elements at Epoch 2459200.5 (2020-Dec-17.0) TDB
Reference: JPL 18 (heliocentric ecliptic J2000)
Element | Value | Uncertainty (1-sigma) | Units |
e | .169701652499041 | 3.9691e-08 | |
a | 2.600908018223693 | 1.0607e-08 | au |
q | 2.159529629533127 | 1.0451e-07 | au |
i | 6.956663211649223 | 5.1018e-06 | deg |
node | 354.6576355612 | 3.4606e-05 | deg |
peri | 89.01268455558566 | 3.8462e-05 | deg |
M | 153.3682187915857 | 1.5876e-05 | deg |
tp | 2458547.792218790674 (2019-Mar-05.29221879) | 6.6352e-05 | TDB |
period | 1532.095782860124 4.19 | 9.3726e-06 2.566e-08 | d yr |
n | .2349722543638559 | 1.4374e-09 | deg/d |
Q | 3.042286406914259 | 1.2408e-08 | au |
|
| | Orbit Determination Parameters
Additional Information
|